CST,Max TemperatureF,Mean TemperatureF,Min TemperatureF,Max Dew PointF,MeanDew PointF,Min DewpointF,Max Humidity, Mean Humidity, Min Humidity, Max Sea Level PressureIn, Mean Sea Level PressureIn, Min Sea Level PressureIn, Max VisibilityMiles, Mean VisibilityMiles, Min VisibilityMiles, Max Wind SpeedMPH, Mean Wind SpeedMPH, Max Gust SpeedMPH,PrecipitationIn, CloudCover, Events, WindDirDegrees
2014-1-1,19,12,5,9,5,1,80,71,61,30.47,30.23,30.02,10,7,0,22,14,27,0.11,7,Snow,8
2014-1-2,21,16,10,12,10,5,80,71,62,30.46,30.37,30.25,10,9,4,15,7,18,T,7,,124
2014-1-3,45,28,10,29,19,3,83,68,53,30.32,29.86,29.59,10,10,9,24,14,33,0.00,0,,193
2014-1-4,40,27,13,30,14,0,76,61,45,30.28,29.99,29.66,10,10,10,30,19,36,0.00,5,,1
2014-1-5,17,6,-6,-1,-10,-20,58,47,36,30.66,30.48,30.29,10,10,10,29,19,37,0.00,2,,350
2014-1-6,16,6,-5,-7,-14,-22,56,43,30,30.60,30.50,30.28,10,10,10,26,13,32,0.00,0,,285
2014-1-7,50,29,8,19,9,-6,67,46,24,30.22,30.11,29.97,10,10,10,18,11,23,0.00,1,,342
2014-1-8,25,18,11,17,14,9,88,75,62,30.38,30.28,30.14,10,6,1,15,9,18,0.03,7,Snow,76
2014-1-9,34,23,12,27,15,9,96,83,69,30.33,30.11,29.86,10,5,0,16,8,23,0.00,7,,181
2014-1-10,37,32,26,33,29,23,100,89,78,29.83,29.65,29.51,10,5,0,13,8,19,0.03,6,Fog-Snow,234
2014-1-11,51,39,27,29,25,22,84,60,35,29.90,29.81,29.68,10,10,10,24,12,29,0.00,1,,266
2014-1-12,52,44,35,30,26,22,70,56,41,29.75,29.59,29.48,10,10,10,22,9,26,0.00,3,,271
2014-1-13,51,37,22,30,23,18,88,58,27,29.92,29.83,29.78,10,10,10,25,11,33,T,2,Rain,278
2014-1-14,48,34,20,31,17,8,68,48,27,30.31,30.14,29.77,10,10,10,36,21,44,0.00,2,,327
2014-1-15,52,34,16,28,20,12,88,60,32,30.29,30.05,29.84,10,10,10,22,7,28,0.00,5,,247
2014-1-16,45,34,23,25,15,7,69,47,25,30.19,30.00,29.87,10,9,5,48,28,62,T,2,,320
2014-1-17,42,29,15,19,12,7,88,58,27,30.23,30.11,29.86,10,10,10,24,9,32,0.00,1,,275
2014-1-18,44,33,21,25,20,15,77,60,43,30.17,29.97,29.80,10,10,10,46,20,61,0.00,2,,304
2014-1-19,67,45,22,21,17,12,77,46,15,30.06,29.91,29.79,10,10,10,21,10,23,0.00,0,,269
2014-1-20,50,29,8,22,13,-1,68,48,28,30.53,30.17,29.86,10,10,10,41,19,53,0.00,0,,336
2014-1-21,33,17,1,12,1,-6,79,57,34,30.54,30.32,30.07,10,10,10,22,8,29,0.00,0,,244
2014-1-22,35,19,2,21,8,-11,77,60,43,30.66,30.31,30.14,10,10,10,30,16,37,T,4,,341
2014-1-23,20,8,-4,-2,-10,-12,72,49,25,30.92,30.77,30.53,10,10,10,20,11,25,0.00,0,,299
2014-1-24,55,33,11,32,17,2,73,50,27,30.46,30.08,29.86,10,10,10,31,14,40,0.00,3,,266
2014-1-25,50,44,38,34,30,26,73,60,46,30.07,29.92,29.68,10,10,10,28,13,36,0.00,3,,309
2014-1-26,57,34,10,28,17,-6,70,50,30,30.36,29.87,29.65,10,10,9,43,20,55,T,3,,314
2014-1-27,16,10,4,-7,-11,-13,62,45,27,30.56,30.49,30.37,10,10,7,29,10,36,0.00,0,,350
2014-1-28,24,13,1,3,-4,-11,86,59,32,30.51,30.40,30.25,10,10,7,20,6,24,0.00,1,,251
2014-1-29,49,27,5,20,6,-5,69,44,19,30.25,29.94,29.53,10,10,10,22,10,28,0.00,1,,201
2014-1-30,44,33,21,22,14,10,61,45,28,30.07,29.78,29.41,10,9,2,39,14,47,T,5,Snow,10
2014-1-31,21,18,15,17,14,10,88,81,73,30.16,30.01,29.90,10,4,1,15,7,18,0.20,8,Snow,58